TOP > 外国特許検索

外国特許検索

Display results per page Option
Patent state
Country

Clear

Hits 4690 results

No. Application number
Gazette No
Country
Title
Release Date
Update Date
Information Provider
1201 2010JP063620 WO 2011/019051 世界知的所有権機関(WIPO) WIRELESS RECEIVING DEVICE 新技術説明会 2011/11/07 2011/12/01 奈良先端科学技術大学院大学
1202 2010JP065070 WO 2011027839 世界知的所有権機関(WIPO) CHOLESTEROL-EFFLUX PEPTIDE 2011/11/09 2019/04/22 福岡大学
1203 2010JP063894 WO 2011/024677 世界知的所有権機関(WIPO) ELECTRODE MEMBER, ELECTRON ENERGY ANALYZER, PHOTOELECTRON ENERGY ANALYZER, AND TEMPERATURE MEASURING APPARATUS 2011/11/09 2011/12/01 横浜市立大学
1204 2010JP063822 WO 2011/021605 世界知的所有権機関(WIPO) OBJECT DETECTION METHOD 2011/11/09 2011/12/02 大阪府立大学
1205 2010JP065835 WO 2011/030904 世界知的所有権機関(WIPO) NI3(SI, TI) INTERMETALLIC COMPOUND TO WHICH W IS ADDED, AND METHOD FOR PRODUCING SAME 2011/11/09 2011/12/02 大阪府立大学
1206 2010JP065839 WO 2011/030905 世界知的所有権機関(WIPO) NI3(SI, TI) INTERMETALLIC COMPOUND TO WHICH TA IS ADDED 2011/11/09 2011/12/02 大阪府立大学
1207 2010JP066900 WO 2011/040434 世界知的所有権機関(WIPO) CYCLOPARA(HETERO)ARYLENE COMPOUND AND METHOD FOR PRODUCING SAME 実績あり 2011/11/09 2011/12/02 京都大学
1208 2010JP063529 WO 2011/019031 世界知的所有権機関(WIPO) METHOD AND REAGENT FOR GENE SEQUENCE ANALYSIS 2011/11/09 2011/12/01 群馬大学
1209 2010JP063566 WO 2011/019036 世界知的所有権機関(WIPO) METHOD FOR EXTRACTING A CHARGED PARTICLE BEAM USING PULSE VOLTAGE 2011/11/09 2011/12/01 群馬大学
1210 2010JP064908 WO 2011/030704 世界知的所有権機関(WIPO) CONTAINER FOR CRYSTALLIZATION, CRYSTALLIZATION APPARATUS, METHOD FOR PRODUCING CRYSTAL, AND SUBSTRATE FOR CRYSTALLIZATION 2011/11/09 2011/12/01 群馬大学
1211 2010JP065348 WO 2011/030766 世界知的所有権機関(WIPO) METHOD FOR PRODUCING STEREO COMPLEX CRYSTALS OF POLYLACTIC ACID, POLYLACTIC ACID, AND MOLDED BODY, SYNTHETIC FIBER, POROUS BODY AND ION CONDUCTOR COMPRISING SAME 2011/11/09 2011/12/01 群馬大学
1212 2010JP063967 WO 2011/027670 世界知的所有権機関(WIPO) METHOD FOR QUANTITATIVELY EVALUATING CONCENTRATION OF ATOMIC VACANCIES EXISTING IN SILICON WAFER, METHOD FOR MANUFACTURING SILICON WAFER, AND SILICON WAFER MANUFACTURED BY THE METHOD FOR MANUFACTURING SILICON WAFER 新技術説明会 2011/11/09 2011/12/01 新潟大学
1213 2010JP071485 WO 2011/068122 世界知的所有権機関(WIPO) METHOD FOR PRODUCING HYDROGEN BY MEANS OF HYDROTHERMAL DECOMPOSITION, AND DEVICE FOR PRODUCING HYDROGEN 新技術説明会 2011/11/09 2011/12/01 新潟大学
1214 2010JP064567 WO 2011/027718 世界知的所有権機関(WIPO) METHOD AND KIT FOR MEASURING ENZYMATIC ACTIVITIES OF VARIOUS CYTOCHROME P450 MOLECULE SPECIES COMPREHENSIVELY AND WITH HIGH EFFICIENCY 2011/11/09 2011/12/01 神戸大学
1215 2010JP066853 WO 2011/037263 世界知的所有権機関(WIPO) SOLVENT FOR ELECTROLYTIC SOLUTION, ELECTROLYTIC SOLUTION, AND GEL-LIKE ELECTROLYTE 2011/11/09 2011/12/02 静岡大学
1216 2010JP067452 WO 2011/043339 世界知的所有権機関(WIPO) SEMICONDUCTOR ELEMENT AND SOLID-STATE IMAGING DEVICE 2011/11/09 2011/12/02 静岡大学
1217 2010JP067672 WO 2011/043432 世界知的所有権機関(WIPO) SEMICONDUCTOR ELEMENT AND SOLID-STATE IMAGE PICKUP DEVICE 2011/11/09 2011/12/02 静岡大学
1218 2010JP067082 WO 2011/040526 世界知的所有権機関(WIPO) VIRUS CAPABLE OF EXPRESSING .alpha.-GALACTOSE EPITOPE, AND METHOD FOR PRODUCTION OF VACCINE 新技術説明会 2011/11/09 2011/12/02 帯広畜産大学
1219 2010JP067083 WO 2011/040527 世界知的所有権機関(WIPO) TRANSGENIC BIRD CAPABLE OF EXPRESSING .alpha.-GALACTOSE EPITOPE, VIRUS, AND VACCINE 新技術説明会 2011/11/09 2011/12/02 帯広畜産大学
1220 2010JP063345 WO 2011016540 世界知的所有権機関(WIPO) NOVEL UBIQUITIN LIGASE AND USE THEREOF 2011/11/09 2020/05/20 京都大学
1221 2010JP064792 WO 2011/025026 世界知的所有権機関(WIPO) STERILIZATION METHOD 2011/11/09 2011/12/01 東京工業大学
1222 2010JP005687 WO 2011/033784 世界知的所有権機関(WIPO) SIGNAL EXTRACTING APPARATUS 2011/11/09 2011/12/02 東北大学
1223 2010JP063793 WO 2011/021594 世界知的所有権機関(WIPO) SUSTAINED DRUG DELIVERY SYSTEM 新技術説明会 2011/11/09 2011/12/02 東北大学
1224 2010JP065991 WO 2011/030916 世界知的所有権機関(WIPO) PHASE CHANGE MATERIAL AND PHASE CHANGE MEMORY ELEMENT 2011/11/09 2011/12/02 東北大学
1225 2010JP064006 WO 2011/021666 世界知的所有権機関(WIPO) RECOMBINANT DNA MOLECULE ENCODING 5'UTR CAPABLE OF PREVENTING INHIBITION OF TRANSLATION UNDER ENVIRONMENTAL STRESSES 2011/11/09 2011/12/01 奈良先端科学技術大学院大学
1226 2010JP005862 WO 2011/040012 世界知的所有権機関(WIPO) TUNNEL FIELD EFFECT TRANSISTOR AND METHOD FOR MANUFACTURING SAME 新技術説明会 2011/11/09 2011/12/02 北海道大学
1227 2010JP065052 WO 2011/027830 世界知的所有権機関(WIPO) PHOTOELECTRIC CONVERSION DEVICE, LIGHT DETECTING DEVICE, AND LIGHT DETECTING METHOD 2011/11/09 2011/12/02 北海道大学
1228 2010JP065157 WO 2011/027864 世界知的所有権機関(WIPO) PHOTOREDUCTION CATALYST, METHOD FOR SYNTHESIZING AMMONIA USING SAME, AND METHOD FOR DECREASING NITROGEN OXIDE IN WATER USING SAME 2011/11/09 2011/12/02 北海道大学
1229 99111081 201109159 台湾 Pattern formation method, pattern, and device 2011/11/09 2011/11/09 科学技術振興機構(JST)
1230 99107197 I410373 台湾 Method for making an organic modified carbon nanotube 2011/11/09 2014/01/08 科学技術振興機構(JST)
1231 99105476 I402220 台湾 Activated metal salt flocculant and process for producing same 2011/11/09 2013/10/09 山口TLO
1232 2011JP060581 WO 2011/138958 世界知的所有権機関(WIPO) PROCESS FOR PRODUCTION OF FUNCTIONAL DEVICE, PROCESS FOR PRODUCTION OF FERROELECTRIC MATERIAL LAYER, PROCESS FOR PRODUCTION OF FIELD EFFECT TRANSISTOR, THIN FILM TRANSISTOR, FIELD EFFECT TRANSISTOR, AND PIEZOELECTRIC INKJET HEAD 2011/11/16 2011/12/01 科学技術振興機構(JST)
1233 2005JP020122 WO 2006/051726 世界知的所有権機関(WIPO) SENSOR PART AND BIOLOGICAL SENSOR 新技術説明会 2011/11/28 2011/12/02 九州大学
1234 2006SG000157 WO 2006/121414 世界知的所有権機関(WIPO) APPARATUS AND METHOD FOR DESALINATION 2011/11/28 2011/11/28 九州大学
1235 2006JP304154 WO 2006/126320 世界知的所有権機関(WIPO) COMMUNICATION CIRCUIT, COMMUNICATION APPARATUS, IMPEDANCE MATCHING CIRCUIT AND IMPEDANCE MATCHING CIRCUIT DESIGNING METHOD 2011/11/28 2011/12/02 九州大学
1236 2006JP304155 WO 2006/126321 世界知的所有権機関(WIPO) FILTER CHARACTERISTICS REGULATING METHOD, FILTER CHARACTERISTICS REGULATOR, FILTER, AND COMMUNICATION APPARATUS 2011/11/28 2011/12/02 九州大学
1237 2006JP320717 WO 2007/046403 世界知的所有権機関(WIPO) PLANT BELONGING TO GENUS ORYZA HAVING DOMINANT DWARF TRAIT, AND USE THEREOF 2011/11/28 2011/12/02 九州大学
1238 2009JP051348 WO 2009/096423 世界知的所有権機関(WIPO) NETWORK SYSTEM, NODE, PACKET FORWARDING METHOD, PROGRAM, AND RECORDING MEDIUM 2011/11/28 2011/12/02 九州大学
1239 2010JP071658 WO 2011/068191 世界知的所有権機関(WIPO) MANUFACTURING METHOD AND DEVICE FOR COMPOSITION IN WHICH DISPERSED PHASE IS FINELY DISPERSED INTO CONTINUOUS PHASE 新技術説明会 2011/11/28 2011/12/02 九州大学
1240 2010JP062225 WO 2011/010656 世界知的所有権機関(WIPO) ORGANIC ELECTROLUMINESCENT ELEMENT 2011/11/28 2011/12/02 九州大学
1241 2011JP050881 WO 2011/090079 世界知的所有権機関(WIPO) BISTABLE ELEMENT 2011/11/28 2011/12/02 九州大学
1242 2010JP061566 WO 2011/004852 世界知的所有権機関(WIPO) COMPOSITE SHAPED BODY, SILICA GLASS, AND PROCESSES FOR PRODUCTION OF SAME 2011/11/28 2011/12/02 九州大学
1243 2011JP053821 WO 2011/105360 世界知的所有権機関(WIPO) IDENTIFICATION DEVICE AND IDENTIFICATION METHOD 2011/11/28 2011/12/02 九州大学
1244 2011JP053845 WO 2011/105371 世界知的所有権機関(WIPO) COMMUNICATIONS SYSTEM, SLAVE NODE, ROUTE BUILDING METHOD, AND PROGRAM 2011/11/28 2011/12/02 九州大学
1245 2010JP004021 WO 2011/004552 世界知的所有権機関(WIPO) WATER-SOLUBLE DRUG CARRIER AND PROCESS FOR PRODUCTION THEREOF 2011/11/28 2011/12/02 九州大学
1246 2010JP069385 WO 2011/052759 世界知的所有権機関(WIPO) NOVEL NITROXYL RADICAL COMPOUND AND PROCESS FOR PRODUCTION THEREOF 2011/11/28 2011/12/02 九州大学
1247 2010JP069386 WO 2011/052760 世界知的所有権機関(WIPO) METHOD FOR DETECTING ENDOGENOUS BIOMOLECULE 2011/11/28 2011/12/02 九州大学
1248 2011JP051940 WO 2011/093497 世界知的所有権機関(WIPO) PLASMA OXIDATION-REDUCTION METHOD, METHOD FOR PROMOTING PLANT/ANIMAL GROWTH USING THE SAME, AND PLASMA GENERATING DEVICE FOR USE IN METHOD FOR PROMOTING PLANT/ANIMAL GROWTH 2011/11/28 2011/12/02 九州大学
1249 99118267 I425275 台湾 A transmissive liquid crystal display device 2011/11/29 2015/09/29 科学技術振興機構(JST)
1250 2008JP058743 WO 2008/140074 世界知的所有権機関(WIPO) METHOD FOR PRODUCTION OF OPTICALLY ACTIVE CARBOXYLIC ACID ESTER 2011/12/09 2011/12/28 東京理科大学
1251 2011JP077660 WO 2012/081402 世界知的所有権機関(WIPO) LATERAL FACE INSTALLATION-TYPE FORCE SENSE DISPLAY INTERFACE 2011/12/13 2012/06/27 岐阜大学
1252 94108329 I331233 台湾 Liquid crystal display device 2011/12/14 2011/12/14 科学技術振興機構(JST)
1253 94106027 I336134 台湾 Amorphous oxide and thin film transistor 実績あり 2011/12/14 2011/12/14 科学技術振興機構(JST)
1254 99127582 I422622 台湾 Method for producing polymer material 2011/12/19 2015/09/29 科学技術振興機構(JST)
1255 2009JP063633 WO 2010/024089 世界知的所有権機関(WIPO) DIAGNOSIS METHOD AND DIAGNOSIS KIT FOR DERMATOMYOSITIS 2011/12/27 2011/12/28 慶應義塾大学
1256 2009JP002161 WO 2009/139191 世界知的所有権機関(WIPO) ALLERGIC DISEASE MODEL ANIMALS 2011/12/27 2011/12/28 慶應義塾大学
1257 2008JP073164 WO 2009084472 世界知的所有権機関(WIPO) METHOD FOR DETECTING INTRACTABLE EPILEPSY DEVELOPED IN NEONATAL PERIOD AND INFANCY 2011/12/27 2019/04/24 横浜市立大学
1258 2009JP062140 WO 2010/001967 世界知的所有権機関(WIPO) CONSTRUCTION OF EXPRESSION SYSTEM FOR RNA POLYMERASE DERIVED FROM INFLUENZA VIRUS, CRYSTALLIZATION OF THE RNA POLYMERASE, AND SCREENING METHOD FOR ANTI-INFLUENZA AGENT 2011/12/27 2011/12/28 横浜市立大学
1259 2008JP073794 WO 2010/001502 世界知的所有権機関(WIPO) DECODING DEVICE, PERPENDICULAR MAGNETIC RECORDING/REPRODUCING APPARATUS, RECEIVING DEVICE, AND DECODING METHOD 2011/12/27 2011/12/28 四国TLO
1260 2009JP063603 WO 2010/013789 世界知的所有権機関(WIPO) PROTEIN PRODUCTION METHOD, FUSION PROTEIN, AND ANTISERUM 2011/12/27 2011/12/28 岡山大学
1261 2009JP065099 WO 2010/024401 世界知的所有権機関(WIPO) PAIRING COMPUTATION DEVICE, PAIRING COMPUTATION METHOD, AND PAIRING COMPUTATION PROGRAM 2011/12/27 2011/12/28 岡山大学
1262 2009JP004047 WO 2010/023860 世界知的所有権機関(WIPO) DYE-SENSITIZED SOLAR CELL AND METHOD FOR MANUFACTURING SAME 実績あり 2011/12/27 2011/12/28 九州工業大学
1263 2009JP051006 WO 2009/093667 世界知的所有権機関(WIPO) NUCLEIC ACID-BINDING PROTEIN ASSAY METHOD AND KIT 新技術説明会 2011/12/27 2011/12/28 広島大学
1264 2009JP058229 WO 2009/136561 世界知的所有権機関(WIPO) METHOD OF FIXING ANTIBACTERIAL AGENT AND ARTICLE OBTAINED BY THE METHOD 2011/12/27 2011/12/28 広島大学
1265 2009JP002049 WO 2009/144877 世界知的所有権機関(WIPO) PELVIC BAND 新技術説明会 2011/12/27 2011/12/28 広島大学
1266 2009JP055952 WO 2009/119667 世界知的所有権機関(WIPO) Helicobacter pylori GROWTH INHIBITOR AND METHOD FOR PRODUCTION THEREOF 2011/12/27 2011/12/28 広島大学
1267 2009JP064557 WO 2010/032582 世界知的所有権機関(WIPO) THERAPEUTIC AGENT FOR ADULT T-CELL LEUKEMIA 2011/12/27 2011/12/28 鹿児島大学
1268 2009JP057739 WO 2009/128526 世界知的所有権機関(WIPO) APPARATUS FOR THE IDENTIFICATION OF RIBONUCLEIC ACID, METHOD FOR THE IDENTIFICATION OF RIBONUCLEIC ACID AND PROGRAM AND SYSTEM FOR THE IDENTIFICATION OF RIBONUCLEIC ACID 2011/12/27 2011/12/28 東京農工大学
1269 2009JP062558 WO 2010/005062 世界知的所有権機関(WIPO) FUNCTIONAL DEVICE AND MANUFACTURING METHOD THEREFOR 2011/12/27 2011/12/28 東北大学
1270 2009JP056409 WO 2009/119862 世界知的所有権機関(WIPO) METHOD OF MODIFYING TARGET REGION IN HOST DNA AND SELECTABLE MARKER CASSETTE 2011/12/27 2011/12/27 奈良先端科学技術大学院大学
1271 2009JP058345 WO 2009133882 世界知的所有権機関(WIPO) BACTERIAL TOXIN VACCINE 2011/12/27 2019/04/24 奈良先端科学技術大学院大学
1272 2009JP001090 WO 2009/113303 世界知的所有権機関(WIPO) METHOD FOR DETECTION OF METHYLCYTOSINE USING PHOTORESPONSIVE PROBE 2011/12/27 2011/12/28 北陸先端科学技術大学院大学
1273 2009JP001391 WO 2009/119109 世界知的所有権機関(WIPO) METHOD OF PRODUCING FERMENTED TEA DRINK RICH IN THEAFLAVINS 2011/12/27 2011/12/28 静岡県立大学
1274 2009JP001395 WO 2009/119113 世界知的所有権機関(WIPO) FERMENTED TEA DRINK CONTAINING METHYLATED CATECHIN 2011/12/27 2011/12/28 静岡県立大学
1275 2008JP068124 WO 2009/044903 世界知的所有権機関(WIPO) METHOD OF PREPARING PROTEIN SAMPLE 2011/12/27 2011/12/28 慶應義塾大学
1276 2009JP070323 WO 2010/064686 世界知的所有権機関(WIPO) DIELECTRIC COMPOUND AND MANUFACTURING METHOD THEREOF 2011/12/27 2011/12/28 岡山大学
1277 2010JP005611 WO 2011/048745 世界知的所有権機関(WIPO) MOUTHPIECE 2011/12/27 2011/12/28 岡山大学
1278 2010JP000164 WO 2010/087114 世界知的所有権機関(WIPO) SCANNING PROBE MICROSCOPE 2011/12/27 2011/12/28 金沢大学
1279 2009JP006580 WO 2010/067548 世界知的所有権機関(WIPO) ELECTRONIC COMPONENT FOR WIRING, METHOD FOR MANUFACTURING THE ELECTRONIC COMPONENT, ELECTRONIC DEVICE PACKAGE TO BE USED WITH THE ELECTRONIC COMPONENT PACKAGED THEREIN, AND METHOD FOR MANUFACTURING THE ELECTRONIC DEVICE PACKAGE 2011/12/28 2011/12/28 九州工業大学
1280 2009JP070135 WO 2010/092724 世界知的所有権機関(WIPO) ELECTRICAL GENERATOR 2011/12/28 2011/12/28 東北大学
1281 2010JP004973 WO 2011/016256 世界知的所有権機関(WIPO) CANTILEVER EXCITATION DEVICE AND SCANNING PROBE MICROSCOPE 2011/12/28 2011/12/28 金沢大TLO
1282 2010JP050674 WO 2011016260 世界知的所有権機関(WIPO) NOVEL GLYCOSYLTRANSFERASE, NOVEL GLYCOSYLTRANSFERASE GENE, AND NOVEL GLYCOSYL DONOR COMPOUND 2011/12/28 2019/04/23 東京農工大学
1283 2010JP006364 WO 2011/052205 世界知的所有権機関(WIPO) POLYMER-COATED FERRITE MICROPARTICLES AND PRODUCTION METHOD FOR SAME 2011/12/28 2011/12/28 東京工業大学
1284 2010JP059603 WO 2010/143601 世界知的所有権機関(WIPO) TWO-BEAM OPTICAL COHERENCE TOMOGRAPHY APPARATUS 2011/12/28 2011/12/28 筑波大学
1285 2010JP061188 WO 2011/045961 世界知的所有権機関(WIPO) PARTICLE SIZE MEASURING DEVICE AND PARTICLE SIZE MEASURING METHOD 2011/12/28 2011/12/28 群馬大学
1286 2010JP067217 WO 2011/043255 世界知的所有権機関(WIPO) POSITIVE ELECTRODE MATERIAL FOR LITHIUM ION SECONDARY BATTERY, AND PROCESS FOR PRODUCTION THEREOF 新技術説明会 2011/12/28 2011/12/28 長岡技術科学大学
1287 2010JP067598 WO 2011/043402 世界知的所有権機関(WIPO) SEMICONDUCTOR DEVICE 2011/12/28 2011/12/28 東北大学
1288 2010JP067860 WO 2011/046108 世界知的所有権機関(WIPO) AXIAL GAP MOTOR 2011/12/28 2011/12/28 北海道大学
1289 2010JP067979 WO 2011/046152 世界知的所有権機関(WIPO) PROCESSES FOR PRODUCING PRECURSOR FOR FUNCTIONALLY GRADIENT MATERIAL AND PRODUCING FUNCTIONALLY GRADIENT MATERIAL, PRECURSOR FOR FUNCTIONALLY GRADIENT MATERIAL, AND FUNCTIONALLY GRADIENT MATERIAL 新技術説明会 2011/12/28 2011/12/28 科学技術振興機構(JST)
1290 2010JP068695 WO 2011049200 世界知的所有権機関(WIPO) ANTIPRURITIC AGENT 2011/12/28 2019/04/19 産業医科大学
1291 2010JP069966 WO 2011/058981 世界知的所有権機関(WIPO) NEGATIVE ELECTRODE FOR LITHIUM SECONDARY BATTERY AND METHOD FOR PRODUCING SAME 2011/12/28 2011/12/28 群馬大学
1292 2010JP070237 WO 2011/059073 世界知的所有権機関(WIPO) PHOSPHOLIPID DERIVATIVE AND PH-RESPONSIVE LIPOSOMES 2011/12/28 2011/12/28 大阪府立大学
1293 2010JP070181 WO 2011059051 世界知的所有権機関(WIPO) FLOWERING INDUCER 2011/12/28 2019/04/23 佐賀大学
1294 2010JP071616 WO 2011068176 世界知的所有権機関(WIPO) METHOD FOR DETECTING CHOLANGIOCELLULAR CARCINOMA AND METHOD OF SCREENING FOR PROPHYLACTIC OR THERAPEUTIC AGENT 2011/12/28 2019/04/23 佐賀大学
1295 2010JP072485 WO 2011074578 世界知的所有権機関(WIPO) PEPTIDES IMPARTING CELL PERMEABILITY TO LIPID MEMBRANE STRUCTURE AND/OR ENHANCING CELL PERMEABILITY OF LIPID MEMBRANE STRUCTURE, AND LIPID MEMBRANE STRUCTURE COMPRISING LIPID BOUND TO SUCH PEPTIDE AS CONSTITUENT LIPID AND HAVING CELL PERMEABILITY OR SHOWING ENHANCED CELL PERMEABILITY 新技術説明会 2011/12/28 2019/04/24 北海道大学
1296 2010JP073129 WO 2011/078223 世界知的所有権機関(WIPO) METHOD FOR ANALYZING CERVICAL LYMPH NODE METASTASIS, AND TUMOR MARKER FOR HEAD AND NECK CANCER 2011/12/28 2011/12/28 四国TLO
1297 2011JP003276 WO 2011/158473 世界知的所有権機関(WIPO) POWER GENERATION ELEMENT AND POWER GENERATION APPARATUS PROVIDED WITH POWER GENERATION ELEMENT 新技術説明会 実績あり 2012/01/06 2012/02/01 金沢大TLO
1298 2011JP002673 WO 2011/145306 世界知的所有権機関(WIPO) RECTIFICATION CIRCUIT 2012/01/06 2012/02/01 金沢大TLO
1299 74332408 8481714 アメリカ合衆国 Light-responsive artificial nucleotide having photo-crosslinking ability 2012/01/06 2018/07/20 科学技術振興機構(JST)
1300 73496808 9265729 アメリカ合衆国 Nanofunctional silica particles and manufacturing method thereof 実績あり 2012/01/06 2018/07/19 徳島大学

PAGE TOP